Wind_Speed
23 24 23 21 20 19 20 19 18 15 11 11 8 10 8 7 6 6 7 8 10 11
27 27 25 25 24 22 22 22 20 18 15 13 11 9 9 8 7 7 8 9 10 12
30 32 29 27 26 26 25 25 22 19 16 13 12 11 8 8 7 8 9 10 11 13
34 34 32 30 29 29 28 27 24 20 18 14 11 11 9 8 7 8 9 11 13 14
36 36 35 34 32 33 32 29 24 18 15 13 12 10 8 8 8 9 10 12 14 15
36 38 36 33 36 37 34 28 20 18 14 15 14 10 8 8 9 11 12 14 15 16
37 36 33 35 35 31 24 21 19 16 17 15 11 9 8 9 10 12 14 15 17 18
36 35 35 33 30 26 20 18 16 18 15 12 9 8 8 9 11 13 15 17 18 19
32 34 30 27 24 23 20 19 18 17 12 9 8 7 8 10 12 14 16 18 19 20
30 29 28 24 22 23 22 20 17 13 11 8 6 7 9 11 13 15 18 20 21 21
29 26 25 26 25 23 20 17 14 11 8 6 7 9 12 13 15 17 18 20 21 23
28 28 28 27 25 22 19 16 13 10 7 6 8 11 14 16 17 18 19 19 21 23
29 29 28 26 23 21 17 14 11 7 6 7 9 12 16 18 18 19 20 20 21 22
30 28 26 25 22 19 16 12 9 6 6 8 11 14 16 17 19 21 22 23 23 23
Wind_Direction
219 211 216 218 226 226 223 218 218 224 242 251 270 279 264 267 282 298 310 316 321 322
212 213 218 220 226 228 218 219 224 229 235 241 241 242 251 262 280 294 305 313 315 315
213 214 217 221 223 221 219 220 224 227 229 229 233 231 238 255 272 288 300 306 311 314
215 215 217 220 222 223 222 222 223 224 231 226 228 227 239 252 271 287 300 309 312 313
216 217 217 217 219 219 220 212 220 219 217 222 219 235 235 258 276 291 302 307 312 313
215 218 218 219 215 210 205 208 204 205 206 215 223 226 243 264 286 297 307 312 313 313
208 208 202 208 208 208 202 202 195 201 204 208 217 225 255 279 295 306 309 309 312 314
208 199 203 195 198 197 191 193 189 196 200 210 215 242 266 289 299 302 306 308 310 311
193 199 189 194 189 185 188 183 186 197 199 208 233 255 277 290 299 305 308 307 307 309
189 187 187 185 179 177 179 186 188 190 201 219 244 271 287 299 303 305 306 308 312 313
185 183 179 177 179 180 182 181 186 193 202 224 256 280 292 300 304 307 308 311 314 314
182 179 179 179 179 180 179 180 185 192 210 245 276 289 301 304 305 306 309 313 314 314
181 183 179 178 176 175 174 179 184 200 234 268 289 301 303 305 308 308 310 314 316 316
177 178 177 174 174 175 176 180 191 223 263 286 295 298 301 305 310 313 315 318 319 320
Height
1541 1545 1549 1552 1555 1557 1559 1562 1563 1565 1566 1567 1567 1567 1567 1567 1567 1567 1566 1565 1564 1563
1537 1541 1546 1549 1552 1554 1556 1558 1560 1562 1563 1564 1564 1564 1565 1565 1565 1565 1565 1564 1563 1561
1533 1537 1542 1545 1548 1550 1552 1555 1557 1558 1560 1561 1561 1562 1563 1563 1563 1563 1563 1562 1560 1559
1528 1532 1537 1540 1544 1546 1549 1551 1553 1555 1557 1559 1560 1561 1561 1561 1560 1561 1560 1560 1559 1557
1521 1527 1530 1534 1538 1542 1544 1546 1548 1552 1553 1558 1558 1559 1559 1560 1558 1558 1558 1557 1556 1554
1516 1521 1525 1529 1533 1535 1537 1540 1544 1549 1550 1554 1556 1557 1557 1557 1556 1556 1555 1555 1553 1551
1511 1514 1518 1524 1526 1532 1535 1539 1542 1546 1548 1551 1552 1553 1553 1554 1554 1554 1552 1551 1549 1547
1507 1511 1515 1518 1522 1526 1532 1536 1540 1544 1547 1548 1549 1549 1550 1550 1550 1550 1549 1548 1546 1543
1503 1507 1512 1516 1520 1526 1531 1534 1538 1542 1544 1546 1547 1548 1547 1547 1546 1546 1545 1544 1543 1540
1500 1505 1510 1514 1520 1525 1529 1533 1537 1539 1542 1543 1545 1545 1545 1544 1543 1542 1541 1539 1537 1535
1498 1504 1509 1515 1520 1524 1528 1532 1536 1538 1540 1541 1541 1541 1541 1541 1539 1538 1536 1534 1531 1529
1498 1504 1509 1514 1519 1523 1527 1531 1534 1535 1537 1537 1538 1538 1537 1537 1536 1534 1532 1530 1527 1524
1498 1504 1508 1513 1518 1522 1525 1529 1532 1534 1535 1535 1535 1535 1533 1532 1531 1529 1526 1524 1523 1520
1499 1504 1508 1512 1517 1520 1523 1526 1528 1530 1531 1532 1532 1531 1530 1528 1526 1524 1522 1519 1517 1515